{"data":{"norad_id":49410,"epoch":"2026-05-24T16:44:32.804160Z","epoch_age_seconds":107982,"freshness":"FRESH","line1":"1 49410U 21104C   26144.69760190  .00000379  00000+0  41929-4 0  9998","line2":"2 49410  53.2166 247.9166 0001392  89.9037 270.2115 15.08840908250108","mean_motion":15.08840908,"eccentricity":0.0001392,"inclination_deg":53.2166,"raan_deg":247.9166,"arg_perigee_deg":89.9037,"mean_anomaly_deg":270.2115,"bstar":4.1929e-5,"rev_number":25010,"period_min":95.437497244739,"perigee_km":538.77764500894,"apogee_km":540.70358213656,"semimajor_km":6917.8776135727,"source":"CELESTRAK","updated_at":"2026-05-25T13:38:16.794488Z"}}